#datetime,building,power
2023-04-08T00:00:00,prt,24.35
2023-04-08T00:01:00,prt,23.61
2023-04-08T00:02:00,prt,24.21
2023-04-08T00:03:00,prt,27.39
2023-04-08T00:04:00,prt,25.43
2023-04-08T00:05:00,prt,20.45
2023-04-08T00:06:00,prt,20.27
2023-04-08T00:07:00,prt,21.22
2023-04-08T00:08:00,prt,24.54
2023-04-08T00:09:00,prt,31.94
2023-04-08T00:10:00,prt,28.16
2023-04-08T00:11:00,prt,28.48
2023-04-08T00:12:00,prt,27.00
2023-04-08T00:13:00,prt,25.04
2023-04-08T00:14:00,prt,29.25
2023-04-08T00:15:00,prt,31.38
2023-04-08T00:16:00,prt,31.80
2023-04-08T00:17:00,prt,22.62
2023-04-08T00:18:00,prt,29.64
2023-04-08T00:19:00,prt,22.33
2023-04-08T00:20:00,prt,20.82
2023-04-08T00:21:00,prt,20.19
2023-04-08T00:22:00,prt,19.69
2023-04-08T00:23:00,prt,19.07
2023-04-08T00:24:00,prt,20.23
2023-04-08T00:25:00,prt,20.10
2023-04-08T00:26:00,prt,20.09
2023-04-08T00:27:00,prt,19.51
2023-04-08T00:28:00,prt,26.08
2023-04-08T00:29:00,prt,23.86
2023-04-08T00:30:00,prt,20.41
2023-04-08T00:31:00,prt,20.19
2023-04-08T00:32:00,prt,20.32
2023-04-08T00:33:00,prt,21.91
2023-04-08T00:34:00,prt,24.63
2023-04-08T00:35:00,prt,25.47
2023-04-08T00:36:00,prt,25.14
2023-04-08T00:37:00,prt,27.58
2023-04-08T00:38:00,prt,26.53
2023-04-08T00:39:00,prt,25.25
2023-04-08T00:40:00,prt,28.25
2023-04-08T00:41:00,prt,29.72
2023-04-08T00:42:00,prt,29.37
2023-04-08T00:43:00,prt,23.04
2023-04-08T00:44:00,prt,21.98
2023-04-08T00:45:00,prt,22.86
2023-04-08T00:46:00,prt,21.80
2023-04-08T00:47:00,prt,24.97
2023-04-08T00:48:00,prt,25.55
2023-04-08T00:49:00,prt,26.04
2023-04-08T00:50:00,prt,24.67
2023-04-08T00:51:00,prt,23.34
2023-04-08T00:52:00,prt,24.23
2023-04-08T00:53:00,prt,29.88
2023-04-08T00:54:00,prt,27.85
2023-04-08T00:55:00,prt,24.55
2023-04-08T00:56:00,prt,24.82
2023-04-08T00:57:00,prt,27.01
2023-04-08T00:58:00,prt,23.82
2023-04-08T00:59:00,prt,23.37
2023-04-08T01:00:00,prt,26.01
2023-04-08T01:01:00,prt,27.28
2023-04-08T01:02:00,prt,29.23
2023-04-08T01:03:00,prt,27.85
2023-04-08T01:04:00,prt,27.27
2023-04-08T01:05:00,prt,35.88
2023-04-08T01:06:00,prt,30.30
2023-04-08T01:07:00,prt,31.75
2023-04-08T01:08:00,prt,25.91
2023-04-08T01:09:00,prt,24.41
2023-04-08T01:10:00,prt,27.29
2023-04-08T01:11:00,prt,23.14
2023-04-08T01:12:00,prt,25.30
2023-04-08T01:13:00,prt,23.89
2023-04-08T01:14:00,prt,24.00
2023-04-08T01:15:00,prt,23.39
2023-04-08T01:16:00,prt,23.75
2023-04-08T01:17:00,prt,21.04
2023-04-08T01:18:00,prt,28.33
2023-04-08T01:19:00,prt,28.71
2023-04-08T01:20:00,prt,25.21
2023-04-08T01:21:00,prt,23.87
2023-04-08T01:22:00,prt,20.89
2023-04-08T01:23:00,prt,20.01
2023-04-08T01:24:00,prt,20.10
2023-04-08T01:25:00,prt,18.82
2023-04-08T01:26:00,prt,17.85
2023-04-08T01:27:00,prt,23.14
2023-04-08T01:28:00,prt,22.18
2023-04-08T01:29:00,prt,22.80
2023-04-08T01:30:00,prt,27.57
2023-04-08T01:31:00,prt,30.75
2023-04-08T01:32:00,prt,30.50
2023-04-08T01:33:00,prt,21.67
2023-04-08T01:34:00,prt,23.28
2023-04-08T01:35:00,prt,23.24
2023-04-08T01:36:00,prt,21.19
2023-04-08T01:37:00,prt,21.74
2023-04-08T01:38:00,prt,21.02
2023-04-08T01:39:00,prt,20.86
2023-04-08T01:40:00,prt,21.45
2023-04-08T01:41:00,prt,22.01
2023-04-08T01:42:00,prt,20.76
2023-04-08T01:43:00,prt,27.74
2023-04-08T01:44:00,prt,24.02
2023-04-08T01:45:00,prt,18.90
2023-04-08T01:46:00,prt,18.60
2023-04-08T01:47:00,prt,18.26
2023-04-08T01:48:00,prt,24.72
2023-04-08T01:49:00,prt,24.98
2023-04-08T01:50:00,prt,25.13
2023-04-08T01:51:00,prt,22.46
2023-04-08T01:52:00,prt,27.49
2023-04-08T01:53:00,prt,26.40
2023-04-08T01:54:00,prt,29.40
2023-04-08T01:55:00,prt,26.32
2023-04-08T01:56:00,prt,34.98
2023-04-08T01:57:00,prt,31.09
2023-04-08T01:58:00,prt,28.32
2023-04-08T01:59:00,prt,26.26
2023-04-08T02:00:00,prt,24.56
2023-04-08T02:01:00,prt,21.99
2023-04-08T02:02:00,prt,21.36
2023-04-08T02:03:00,prt,21.07
2023-04-08T02:04:00,prt,21.53
2023-04-08T02:05:00,prt,22.85
2023-04-08T02:06:00,prt,22.32
2023-04-08T02:07:00,prt,25.77
2023-04-08T02:08:00,prt,29.25
2023-04-08T02:09:00,prt,19.08
2023-04-08T02:10:00,prt,20.09
2023-04-08T02:11:00,prt,21.91
2023-04-08T02:12:00,prt,20.97
2023-04-08T02:13:00,prt,20.05
2023-04-08T02:14:00,prt,20.81
2023-04-08T02:15:00,prt,20.59
2023-04-08T02:16:00,prt,24.63
2023-04-08T02:17:00,prt,23.00
2023-04-08T02:18:00,prt,18.90
2023-04-08T02:19:00,prt,19.15
2023-04-08T02:20:00,prt,29.51
2023-04-08T02:21:00,prt,27.91
2023-04-08T02:22:00,prt,24.04
2023-04-08T02:23:00,prt,23.72
2023-04-08T02:24:00,prt,26.70
2023-04-08T02:25:00,prt,27.94
2023-04-08T02:26:00,prt,24.36
2023-04-08T02:27:00,prt,21.46
2023-04-08T02:28:00,prt,20.02
2023-04-08T02:29:00,prt,21.13
2023-04-08T02:30:00,prt,20.86
2023-04-08T02:31:00,prt,21.10
2023-04-08T02:32:00,prt,19.63
2023-04-08T02:33:00,prt,25.19
2023-04-08T02:34:00,prt,19.79
2023-04-08T02:35:00,prt,19.50
2023-04-08T02:36:00,prt,19.59
2023-04-08T02:37:00,prt,19.06
2023-04-08T02:38:00,prt,19.53
2023-04-08T02:39:00,prt,20.10
2023-04-08T02:40:00,prt,20.71
2023-04-08T02:41:00,prt,21.47
2023-04-08T02:42:00,prt,21.60
2023-04-08T02:43:00,prt,22.33
2023-04-08T02:44:00,prt,21.97
2023-04-08T02:45:00,prt,28.16
2023-04-08T02:46:00,prt,27.53
2023-04-08T02:47:00,prt,25.78
2023-04-08T02:48:00,prt,28.28
2023-04-08T02:49:00,prt,27.96
2023-04-08T02:50:00,prt,26.12
2023-04-08T02:51:00,prt,26.94
2023-04-08T02:52:00,prt,19.95
2023-04-08T02:53:00,prt,21.29
2023-04-08T02:54:00,prt,21.83
2023-04-08T02:55:00,prt,21.00
2023-04-08T02:56:00,prt,24.09
2023-04-08T02:57:00,prt,25.02
2023-04-08T02:58:00,prt,31.23
2023-04-08T02:59:00,prt,22.73
2023-04-08T03:00:00,prt,22.80
2023-04-08T03:01:00,prt,21.36
2023-04-08T03:02:00,prt,22.86
2023-04-08T03:03:00,prt,21.43
2023-04-08T03:04:00,prt,22.01
2023-04-08T03:05:00,prt,22.51
2023-04-08T03:06:00,prt,20.74
2023-04-08T03:07:00,prt,21.97
2023-04-08T03:08:00,prt,21.43
2023-04-08T03:09:00,prt,22.96
2023-04-08T03:10:00,prt,27.31
2023-04-08T03:11:00,prt,24.79
2023-04-08T03:12:00,prt,20.75
2023-04-08T03:13:00,prt,20.38
2023-04-08T03:14:00,prt,23.28
2023-04-08T03:15:00,prt,23.39
2023-04-08T03:16:00,prt,25.22
2023-04-08T03:17:00,prt,25.79
2023-04-08T03:18:00,prt,23.95
2023-04-08T03:19:00,prt,21.30
2023-04-08T03:20:00,prt,24.69
2023-04-08T03:21:00,prt,25.27
2023-04-08T03:22:00,prt,27.62
2023-04-08T03:23:00,prt,28.22
2023-04-08T03:24:00,prt,20.36
2023-04-08T03:25:00,prt,18.22
2023-04-08T03:26:00,prt,17.76
2023-04-08T03:27:00,prt,17.64
2023-04-08T03:28:00,prt,22.52
2023-04-08T03:29:00,prt,23.31
2023-04-08T03:30:00,prt,24.57
2023-04-08T03:31:00,prt,19.97
2023-04-08T03:32:00,prt,19.22
2023-04-08T03:33:00,prt,19.51
2023-04-08T03:34:00,prt,21.98
2023-04-08T03:35:00,prt,31.12
2023-04-08T03:36:00,prt,26.50
2023-04-08T03:37:00,prt,23.29
2023-04-08T03:38:00,prt,23.74
2023-04-08T03:39:00,prt,23.61
2023-04-08T03:40:00,prt,26.03
2023-04-08T03:41:00,prt,26.46
2023-04-08T03:42:00,prt,25.57
2023-04-08T03:43:00,prt,25.65
2023-04-08T03:44:00,prt,28.23
2023-04-08T03:45:00,prt,28.04
2023-04-08T03:46:00,prt,23.86
2023-04-08T03:47:00,prt,27.99
2023-04-08T03:48:00,prt,28.51
2023-04-08T03:49:00,prt,27.29
2023-04-08T03:50:00,prt,21.34
2023-04-08T03:51:00,prt,20.39
2023-04-08T03:52:00,prt,22.47
2023-04-08T03:53:00,prt,21.70
2023-04-08T03:54:00,prt,21.42
2023-04-08T03:55:00,prt,20.23
2023-04-08T03:56:00,prt,21.53
2023-04-08T03:57:00,prt,22.44
2023-04-08T03:58:00,prt,21.85
2023-04-08T03:59:00,prt,24.92
2023-04-08T04:00:00,prt,32.50
2023-04-08T04:01:00,prt,33.67
2023-04-08T04:02:00,prt,29.00
2023-04-08T04:03:00,prt,28.88
2023-04-08T04:04:00,prt,29.47
2023-04-08T04:05:00,prt,30.16
2023-04-08T04:06:00,prt,33.15
2023-04-08T04:07:00,prt,33.54
2023-04-08T04:08:00,prt,31.93
2023-04-08T04:09:00,prt,31.41
2023-04-08T04:10:00,prt,32.08
2023-04-08T04:11:00,prt,32.12
2023-04-08T04:12:00,prt,36.70
2023-04-08T04:13:00,prt,36.81
2023-04-08T04:14:00,prt,34.31
2023-04-08T04:15:00,prt,29.47
2023-04-08T04:16:00,prt,29.77
2023-04-08T04:17:00,prt,30.66
2023-04-08T04:18:00,prt,29.18
2023-04-08T04:19:00,prt,27.60
2023-04-08T04:20:00,prt,32.97
2023-04-08T04:21:00,prt,32.94
2023-04-08T04:22:00,prt,29.06
2023-04-08T04:23:00,prt,28.79
2023-04-08T04:24:00,prt,28.75
2023-04-08T04:25:00,prt,35.97
2023-04-08T04:26:00,prt,34.72
2023-04-08T04:27:00,prt,33.34
2023-04-08T04:28:00,prt,34.45
2023-04-08T04:29:00,prt,34.73
2023-04-08T04:30:00,prt,36.00
2023-04-08T04:31:00,prt,34.31
2023-04-08T04:32:00,prt,33.84
2023-04-08T04:33:00,prt,33.57
2023-04-08T04:34:00,prt,37.22
2023-04-08T04:35:00,prt,34.62
2023-04-08T04:36:00,prt,34.76
2023-04-08T04:37:00,prt,34.87
2023-04-08T04:38:00,prt,43.01
2023-04-08T04:39:00,prt,35.48
2023-04-08T04:40:00,prt,33.37
2023-04-08T04:41:00,prt,31.76
2023-04-08T04:42:00,prt,33.35
2023-04-08T04:43:00,prt,32.95
2023-04-08T04:44:00,prt,29.17
2023-04-08T04:45:00,prt,29.06
2023-04-08T04:46:00,prt,38.42
2023-04-08T04:47:00,prt,47.17
2023-04-08T04:48:00,prt,44.14
2023-04-08T04:49:00,prt,45.12
2023-04-08T04:50:00,prt,49.86
2023-04-08T04:51:00,prt,52.12
2023-04-08T04:52:00,prt,38.62
2023-04-08T04:53:00,prt,40.89
2023-04-08T04:54:00,prt,40.08
2023-04-08T04:55:00,prt,41.17
2023-04-08T04:56:00,prt,41.80
2023-04-08T04:57:00,prt,41.20
2023-04-08T04:58:00,prt,41.83
2023-04-08T04:59:00,prt,41.79
2023-04-08T05:00:00,prt,43.59
2023-04-08T05:01:00,prt,43.72
2023-04-08T05:02:00,prt,49.38
2023-04-08T05:03:00,prt,57.69
2023-04-08T05:04:00,prt,46.98
2023-04-08T05:05:00,prt,48.63
2023-04-08T05:06:00,prt,46.30
2023-04-08T05:07:00,prt,40.23
2023-04-08T05:08:00,prt,41.13
2023-04-08T05:09:00,prt,42.11
2023-04-08T05:10:00,prt,44.02
2023-04-08T05:11:00,prt,45.08
2023-04-08T05:12:00,prt,45.45
2023-04-08T05:13:00,prt,44.56
2023-04-08T05:14:00,prt,44.37
2023-04-08T05:15:00,prt,41.67
2023-04-08T05:16:00,prt,45.54
2023-04-08T05:17:00,prt,37.36
2023-04-08T05:18:00,prt,39.16
2023-04-08T05:19:00,prt,42.32
2023-04-08T05:20:00,prt,41.79
2023-04-08T05:21:00,prt,40.37
2023-04-08T05:22:00,prt,37.38
2023-04-08T05:23:00,prt,39.55
2023-04-08T05:24:00,prt,40.83
2023-04-08T05:25:00,prt,41.29
2023-04-08T05:26:00,prt,36.63
2023-04-08T05:27:00,prt,39.39
2023-04-08T05:28:00,prt,46.44
2023-04-08T05:29:00,prt,45.34
2023-04-08T05:30:00,prt,44.08
2023-04-08T05:31:00,prt,50.33
2023-04-08T05:32:00,prt,51.42
2023-04-08T05:33:00,prt,48.64
2023-04-08T05:34:00,prt,40.75
2023-04-08T05:35:00,prt,40.29
2023-04-08T05:36:00,prt,36.08
2023-04-08T05:37:00,prt,36.48
2023-04-08T05:38:00,prt,34.98
2023-04-08T05:39:00,prt,37.51
2023-04-08T05:40:00,prt,38.45
2023-04-08T05:41:00,prt,47.00
2023-04-08T05:42:00,prt,36.64
2023-04-08T05:43:00,prt,38.05
2023-04-08T05:44:00,prt,40.04
2023-04-08T05:45:00,prt,39.29
2023-04-08T05:46:00,prt,40.66
2023-04-08T05:47:00,prt,41.14
2023-04-08T05:48:00,prt,42.82
2023-04-08T05:49:00,prt,41.80
2023-04-08T05:50:00,prt,40.53
2023-04-08T05:51:00,prt,38.99
2023-04-08T05:52:00,prt,40.30
2023-04-08T05:53:00,prt,47.17
2023-04-08T05:54:00,prt,48.19
2023-04-08T05:55:00,prt,43.22
2023-04-08T05:56:00,prt,44.13
2023-04-08T05:57:00,prt,41.86
2023-04-08T05:58:00,prt,44.59
2023-04-08T05:59:00,prt,44.55
2023-04-08T06:00:00,prt,50.09
2023-04-08T06:01:00,prt,49.61
2023-04-08T06:02:00,prt,48.33
2023-04-08T06:03:00,prt,46.70
2023-04-08T06:04:00,prt,49.36
2023-04-08T06:05:00,prt,58.40
2023-04-08T06:06:00,prt,55.33
2023-04-08T06:07:00,prt,54.18
2023-04-08T06:08:00,prt,48.07
2023-04-08T06:09:00,prt,51.23
2023-04-08T06:10:00,prt,51.54
2023-04-08T06:11:00,prt,49.24
2023-04-08T06:12:00,prt,60.30
2023-04-08T06:13:00,prt,63.88
2023-04-08T06:14:00,prt,65.28
2023-04-08T06:15:00,prt,65.36
2023-04-08T06:16:00,prt,63.54
2023-04-08T06:17:00,prt,61.70
2023-04-08T06:18:00,prt,81.08
2023-04-08T06:19:00,prt,92.84
2023-04-08T06:20:00,prt,91.33
2023-04-08T06:21:00,prt,86.76
2023-04-08T06:22:00,prt,83.25
2023-04-08T06:23:00,prt,83.90
2023-04-08T06:24:00,prt,81.18
2023-04-08T06:25:00,prt,85.61
2023-04-08T06:26:00,prt,81.35
2023-04-08T06:27:00,prt,90.96
2023-04-08T06:28:00,prt,83.84
2023-04-08T06:29:00,prt,82.68
2023-04-08T06:30:00,prt,87.81
2023-04-08T06:31:00,prt,87.97
2023-04-08T06:32:00,prt,77.50
2023-04-08T06:33:00,prt,69.95
2023-04-08T06:34:00,prt,85.62
2023-04-08T06:35:00,prt,97.30
2023-04-08T06:36:00,prt,80.41
2023-04-08T06:37:00,prt,68.76
2023-04-08T06:38:00,prt,76.30
2023-04-08T06:39:00,prt,71.09
2023-04-08T06:40:00,prt,77.57
2023-04-08T06:41:00,prt,80.14
2023-04-08T06:42:00,prt,72.45
2023-04-08T06:43:00,prt,84.74
2023-04-08T06:44:00,prt,82.04
2023-04-08T06:45:00,prt,90.16
2023-04-08T06:46:00,prt,79.88
2023-04-08T06:47:00,prt,80.12
2023-04-08T06:48:00,prt,73.06
2023-04-08T06:49:00,prt,76.74
2023-04-08T06:50:00,prt,73.68
2023-04-08T06:51:00,prt,71.85
2023-04-08T06:52:00,prt,76.83
2023-04-08T06:53:00,prt,76.29
2023-04-08T06:54:00,prt,76.80
2023-04-08T06:55:00,prt,89.05
2023-04-08T06:56:00,prt,74.51
2023-04-08T06:57:00,prt,82.85
2023-04-08T06:58:00,prt,84.06
2023-04-08T06:59:00,prt,82.60
2023-04-08T07:00:00,prt,81.35
2023-04-08T07:01:00,prt,70.97
2023-04-08T07:02:00,prt,74.23
2023-04-08T07:03:00,prt,77.29
2023-04-08T07:04:00,prt,74.80
2023-04-08T07:05:00,prt,78.46
2023-04-08T07:06:00,prt,76.19
2023-04-08T07:07:00,prt,72.31
2023-04-08T07:08:00,prt,84.85
2023-04-08T07:09:00,prt,84.66
2023-04-08T07:10:00,prt,88.26
2023-04-08T07:11:00,prt,89.92
2023-04-08T07:12:00,prt,84.39
2023-04-08T07:13:00,prt,78.16
2023-04-08T07:14:00,prt,79.29
2023-04-08T07:15:00,prt,80.37
2023-04-08T07:16:00,prt,88.67
2023-04-08T07:17:00,prt,87.68
2023-04-08T07:18:00,prt,77.99
2023-04-08T07:19:00,prt,73.95
2023-04-08T07:20:00,prt,80.96
2023-04-08T07:21:00,prt,89.39
2023-04-08T07:22:00,prt,88.34
2023-04-08T07:23:00,prt,87.07
2023-04-08T07:24:00,prt,86.43
2023-04-08T07:25:00,prt,86.00
2023-04-08T07:26:00,prt,88.75
2023-04-08T07:27:00,prt,84.17
2023-04-08T07:28:00,prt,77.88
2023-04-08T07:29:00,prt,76.16
2023-04-08T07:30:00,prt,80.71
2023-04-08T07:31:00,prt,81.23
2023-04-08T07:32:00,prt,83.44
2023-04-08T07:33:00,prt,76.87
2023-04-08T07:34:00,prt,89.60
2023-04-08T07:35:00,prt,92.47
2023-04-08T07:36:00,prt,93.60
2023-04-08T07:37:00,prt,87.54
2023-04-08T07:38:00,prt,88.34
2023-04-08T07:39:00,prt,86.80
2023-04-08T07:40:00,prt,84.13
2023-04-08T07:41:00,prt,84.81
2023-04-08T07:42:00,prt,81.49
2023-04-08T07:43:00,prt,79.51
2023-04-08T07:44:00,prt,84.56
2023-04-08T07:45:00,prt,83.26
2023-04-08T07:46:00,prt,90.53
2023-04-08T07:47:00,prt,100.17
2023-04-08T07:48:00,prt,90.47
2023-04-08T07:49:00,prt,82.73
2023-04-08T07:50:00,prt,85.48
2023-04-08T07:51:00,prt,84.53
2023-04-08T07:52:00,prt,78.95
2023-04-08T07:53:00,prt,84.06
2023-04-08T07:54:00,prt,80.55
2023-04-08T07:55:00,prt,78.02
2023-04-08T07:56:00,prt,77.48
2023-04-08T07:57:00,prt,72.67
2023-04-08T07:58:00,prt,77.58
2023-04-08T07:59:00,prt,78.70
2023-04-08T08:00:00,prt,93.31
2023-04-08T08:01:00,prt,92.55
2023-04-08T08:02:00,prt,98.62
2023-04-08T08:03:00,prt,96.52
2023-04-08T08:04:00,prt,97.43
2023-04-08T08:05:00,prt,93.97
2023-04-08T08:06:00,prt,99.53
2023-04-08T08:07:00,prt,87.01
2023-04-08T08:08:00,prt,84.21
2023-04-08T08:09:00,prt,86.34
2023-04-08T08:10:00,prt,89.88
2023-04-08T08:11:00,prt,84.55
2023-04-08T08:12:00,prt,91.95
2023-04-08T08:13:00,prt,88.98
2023-04-08T08:14:00,prt,88.96
2023-04-08T08:15:00,prt,97.52
2023-04-08T08:16:00,prt,99.13
2023-04-08T08:17:00,prt,97.82
2023-04-08T08:18:00,prt,91.89
2023-04-08T08:19:00,prt,83.45
2023-04-08T08:20:00,prt,86.99
2023-04-08T08:21:00,prt,87.53
2023-04-08T08:22:00,prt,81.96
2023-04-08T08:23:00,prt,83.68
2023-04-08T08:24:00,prt,78.18
2023-04-08T08:25:00,prt,87.16
2023-04-08T08:26:00,prt,78.70
2023-04-08T08:27:00,prt,75.49
2023-04-08T08:28:00,prt,84.12
2023-04-08T08:29:00,prt,87.00
2023-04-08T08:30:00,prt,91.67
2023-04-08T08:31:00,prt,90.20
2023-04-08T08:32:00,prt,85.82
2023-04-08T08:33:00,prt,96.11
2023-04-08T08:34:00,prt,79.65
2023-04-08T08:35:00,prt,82.48
2023-04-08T08:36:00,prt,79.26
2023-04-08T08:37:00,prt,81.11
2023-04-08T08:38:00,prt,89.28
2023-04-08T08:39:00,prt,85.28
2023-04-08T08:40:00,prt,83.70
2023-04-08T08:41:00,prt,97.11
2023-04-08T08:42:00,prt,96.28
2023-04-08T08:43:00,prt,97.62
2023-04-08T08:44:00,prt,109.97
2023-04-08T08:45:00,prt,98.39
2023-04-08T08:46:00,prt,80.25
2023-04-08T08:47:00,prt,84.42
2023-04-08T08:48:00,prt,79.77
2023-04-08T08:49:00,prt,80.55
2023-04-08T08:50:00,prt,76.21
2023-04-08T08:51:00,prt,84.33
2023-04-08T08:52:00,prt,81.68
2023-04-08T08:53:00,prt,81.75
2023-04-08T08:54:00,prt,94.36
2023-04-08T08:55:00,prt,86.09
2023-04-08T08:56:00,prt,89.25
2023-04-08T08:57:00,prt,90.86
2023-04-08T08:58:00,prt,86.84
2023-04-08T08:59:00,prt,78.67
2023-04-08T09:00:00,prt,82.45
2023-04-08T09:01:00,prt,84.62
2023-04-08T09:02:00,prt,83.67
2023-04-08T09:03:00,prt,84.31
2023-04-08T09:04:00,prt,97.09
2023-04-08T09:05:00,prt,96.07
2023-04-08T09:06:00,prt,82.11
2023-04-08T09:07:00,prt,79.30
2023-04-08T09:08:00,prt,88.70
2023-04-08T09:09:00,prt,97.79
2023-04-08T09:10:00,prt,104.80
2023-04-08T09:11:00,prt,99.39
2023-04-08T09:12:00,prt,101.19
2023-04-08T09:13:00,prt,90.75
2023-04-08T09:14:00,prt,92.10
2023-04-08T09:15:00,prt,93.94
2023-04-08T09:16:00,prt,91.00
2023-04-08T09:17:00,prt,95.85
2023-04-08T09:18:00,prt,88.65
2023-04-08T09:19:00,prt,84.68
2023-04-08T09:20:00,prt,79.40
2023-04-08T09:21:00,prt,93.87
2023-04-08T09:22:00,prt,104.54
2023-04-08T09:23:00,prt,105.20
2023-04-08T09:24:00,prt,94.08
2023-04-08T09:25:00,prt,94.69
2023-04-08T09:26:00,prt,82.17
2023-04-08T09:27:00,prt,82.06
2023-04-08T09:28:00,prt,89.25
2023-04-08T09:29:00,prt,95.49
2023-04-08T09:30:00,prt,94.29
2023-04-08T09:31:00,prt,116.83
2023-04-08T09:32:00,prt,109.51
2023-04-08T09:33:00,prt,92.31
2023-04-08T09:34:00,prt,98.54
2023-04-08T09:35:00,prt,98.21
2023-04-08T09:36:00,prt,104.05
2023-04-08T09:37:00,prt,107.11
2023-04-08T09:38:00,prt,100.54
2023-04-08T09:39:00,prt,95.80
2023-04-08T09:40:00,prt,103.98
2023-04-08T09:41:00,prt,96.22
2023-04-08T09:42:00,prt,91.23
2023-04-08T09:43:00,prt,90.01
2023-04-08T09:44:00,prt,95.09
2023-04-08T09:45:00,prt,91.45
2023-04-08T09:46:00,prt,98.73
2023-04-08T09:47:00,prt,98.17
2023-04-08T09:48:00,prt,95.36
2023-04-08T09:49:00,prt,98.03
2023-04-08T09:50:00,prt,97.15
2023-04-08T09:51:00,prt,93.65
2023-04-08T09:52:00,prt,82.41
2023-04-08T09:53:00,prt,83.73
2023-04-08T09:54:00,prt,104.26
2023-04-08T09:55:00,prt,93.42
2023-04-08T09:56:00,prt,98.25
2023-04-08T09:57:00,prt,98.14
2023-04-08T09:58:00,prt,91.37
2023-04-08T09:59:00,prt,98.64
2023-04-08T10:00:00,prt,107.13
2023-04-08T10:01:00,prt,103.70
2023-04-08T10:02:00,prt,97.80
2023-04-08T10:03:00,prt,101.67
2023-04-08T10:04:00,prt,98.82
2023-04-08T10:05:00,prt,89.87
2023-04-08T10:06:00,prt,103.00
2023-04-08T10:07:00,prt,102.30
2023-04-08T10:08:00,prt,105.73
2023-04-08T10:09:00,prt,94.75
2023-04-08T10:10:00,prt,87.69
2023-04-08T10:11:00,prt,92.03
2023-04-08T10:12:00,prt,95.48
2023-04-08T10:13:00,prt,103.81
2023-04-08T10:14:00,prt,94.31
2023-04-08T10:15:00,prt,113.41
2023-04-08T10:16:00,prt,116.76
2023-04-08T10:17:00,prt,118.14
2023-04-08T10:18:00,prt,113.82
2023-04-08T10:19:00,prt,110.38
2023-04-08T10:20:00,prt,108.28
2023-04-08T10:21:00,prt,95.01
2023-04-08T10:22:00,prt,91.68
2023-04-08T10:23:00,prt,96.97
2023-04-08T10:24:00,prt,100.89
2023-04-08T10:25:00,prt,98.05
2023-04-08T10:26:00,prt,95.06
2023-04-08T10:27:00,prt,105.29
2023-04-08T10:28:00,prt,101.14
2023-04-08T10:29:00,prt,105.89
2023-04-08T10:30:00,prt,103.27
2023-04-08T10:31:00,prt,104.26
2023-04-08T10:32:00,prt,98.75
2023-04-08T10:33:00,prt,97.45
2023-04-08T10:34:00,prt,107.08
2023-04-08T10:35:00,prt,105.10
2023-04-08T10:36:00,prt,95.30
2023-04-08T10:37:00,prt,89.74
2023-04-08T10:38:00,prt,90.98
2023-04-08T10:39:00,prt,90.66
2023-04-08T10:40:00,prt,106.41
2023-04-08T10:41:00,prt,109.05
2023-04-08T10:42:00,prt,105.48
2023-04-08T10:43:00,prt,101.60
2023-04-08T10:44:00,prt,94.95
2023-04-08T10:45:00,prt,90.70
2023-04-08T10:46:00,prt,92.51
2023-04-08T10:47:00,prt,99.03
2023-04-08T10:48:00,prt,93.99
2023-04-08T10:49:00,prt,87.82
2023-04-08T10:50:00,prt,85.90
2023-04-08T10:51:00,prt,90.05
2023-04-08T10:52:00,prt,93.40
2023-04-08T10:53:00,prt,103.83
2023-04-08T10:54:00,prt,101.61
2023-04-08T10:55:00,prt,103.32
2023-04-08T10:56:00,prt,105.82
2023-04-08T10:57:00,prt,116.09
2023-04-08T10:58:00,prt,98.17
2023-04-08T10:59:00,prt,112.75
2023-04-08T11:00:00,prt,97.35
2023-04-08T11:01:00,prt,93.28
2023-04-08T11:02:00,prt,82.95
2023-04-08T11:03:00,prt,83.04
2023-04-08T11:04:00,prt,92.61
2023-04-08T11:05:00,prt,82.42
2023-04-08T11:06:00,prt,82.17
2023-04-08T11:07:00,prt,81.46
2023-04-08T11:08:00,prt,82.62
2023-04-08T11:09:00,prt,88.20
2023-04-08T11:10:00,prt,86.28
2023-04-08T11:11:00,prt,75.90
2023-04-08T11:12:00,prt,81.49
2023-04-08T11:13:00,prt,76.54
2023-04-08T11:14:00,prt,79.83
2023-04-08T11:15:00,prt,75.49
2023-04-08T11:16:00,prt,84.37
2023-04-08T11:17:00,prt,90.43
2023-04-08T11:18:00,prt,83.83
2023-04-08T11:19:00,prt,88.88
2023-04-08T11:20:00,prt,81.31
2023-04-08T11:21:00,prt,83.60
2023-04-08T11:22:00,prt,88.33
2023-04-08T11:23:00,prt,89.94
2023-04-08T11:24:00,prt,80.78
2023-04-08T11:25:00,prt,73.94
2023-04-08T11:26:00,prt,78.49
2023-04-08T11:27:00,prt,82.11
2023-04-08T11:28:00,prt,77.67
2023-04-08T11:29:00,prt,82.93
2023-04-08T11:30:00,prt,80.58
2023-04-08T11:31:00,prt,79.67
2023-04-08T11:32:00,prt,81.89
2023-04-08T11:33:00,prt,80.12
2023-04-08T11:34:00,prt,76.18
2023-04-08T11:35:00,prt,81.00
2023-04-08T11:36:00,prt,78.33
2023-04-08T11:37:00,prt,79.81
2023-04-08T11:38:00,prt,85.65
2023-04-08T11:39:00,prt,83.44
2023-04-08T11:40:00,prt,77.85
2023-04-08T11:41:00,prt,79.62
2023-04-08T11:42:00,prt,85.03
2023-04-08T11:43:00,prt,84.64
2023-04-08T11:44:00,prt,86.66
2023-04-08T11:45:00,prt,86.37
2023-04-08T11:46:00,prt,85.49
2023-04-08T11:47:00,prt,89.20
2023-04-08T11:48:00,prt,85.24
2023-04-08T11:49:00,prt,83.64
2023-04-08T11:50:00,prt,85.21
2023-04-08T11:51:00,prt,78.54
2023-04-08T11:52:00,prt,79.18
2023-04-08T11:53:00,prt,79.39
2023-04-08T11:54:00,prt,77.67
2023-04-08T11:55:00,prt,75.09
2023-04-08T11:56:00,prt,73.78
2023-04-08T11:57:00,prt,82.18
2023-04-08T11:58:00,prt,86.65
2023-04-08T11:59:00,prt,83.66
2023-04-08T12:00:00,prt,86.86
2023-04-08T12:01:00,prt,90.46
2023-04-08T12:02:00,prt,80.33
2023-04-08T12:03:00,prt,90.39
2023-04-08T12:04:00,prt,89.86
2023-04-08T12:05:00,prt,88.26
2023-04-08T12:06:00,prt,80.93
2023-04-08T12:07:00,prt,85.99
2023-04-08T12:08:00,prt,96.16
2023-04-08T12:09:00,prt,85.45
2023-04-08T12:10:00,prt,93.48
2023-04-08T12:11:00,prt,85.28
2023-04-08T12:12:00,prt,103.14
2023-04-08T12:13:00,prt,83.48
2023-04-08T12:14:00,prt,84.71
2023-04-08T12:15:00,prt,85.02
2023-04-08T12:16:00,prt,87.45
2023-04-08T12:17:00,prt,91.69
2023-04-08T12:18:00,prt,96.39
2023-04-08T12:19:00,prt,97.48
2023-04-08T12:20:00,prt,102.30
2023-04-08T12:21:00,prt,88.48
2023-04-08T12:22:00,prt,93.56
2023-04-08T12:23:00,prt,82.58
2023-04-08T12:24:00,prt,83.75
2023-04-08T12:25:00,prt,81.54
2023-04-08T12:26:00,prt,78.15
2023-04-08T12:27:00,prt,79.92
2023-04-08T12:28:00,prt,78.65
2023-04-08T12:29:00,prt,84.64
2023-04-08T12:30:00,prt,86.61
2023-04-08T12:31:00,prt,89.55
2023-04-08T12:32:00,prt,84.89
2023-04-08T12:33:00,prt,87.57
2023-04-08T12:34:00,prt,100.24
2023-04-08T12:35:00,prt,87.49
2023-04-08T12:36:00,prt,85.53
2023-04-08T12:37:00,prt,85.92
2023-04-08T12:38:00,prt,84.04
2023-04-08T12:39:00,prt,89.14
2023-04-08T12:40:00,prt,82.48
2023-04-08T12:41:00,prt,91.67
2023-04-08T12:42:00,prt,88.69
2023-04-08T12:43:00,prt,98.29
2023-04-08T12:44:00,prt,80.28
2023-04-08T12:45:00,prt,81.16
2023-04-08T12:46:00,prt,86.93
2023-04-08T12:47:00,prt,88.98
2023-04-08T12:48:00,prt,88.70
2023-04-08T12:49:00,prt,86.44
2023-04-08T12:50:00,prt,85.08
2023-04-08T12:51:00,prt,79.96
2023-04-08T12:52:00,prt,87.42
2023-04-08T12:53:00,prt,90.73
2023-04-08T12:54:00,prt,92.48
2023-04-08T12:55:00,prt,84.25
2023-04-08T12:56:00,prt,80.31
2023-04-08T12:57:00,prt,80.48
2023-04-08T12:58:00,prt,80.09
2023-04-08T12:59:00,prt,80.41
2023-04-08T13:00:00,prt,82.74
2023-04-08T13:01:00,prt,78.45
2023-04-08T13:02:00,prt,93.35
2023-04-08T13:03:00,prt,83.69
2023-04-08T13:04:00,prt,84.05
2023-04-08T13:05:00,prt,89.50
2023-04-08T13:06:00,prt,82.45
2023-04-08T13:07:00,prt,83.90
2023-04-08T13:08:00,prt,80.65
2023-04-08T13:09:00,prt,85.09
2023-04-08T13:10:00,prt,80.37
2023-04-08T13:11:00,prt,80.90
2023-04-08T13:12:00,prt,88.33
2023-04-08T13:13:00,prt,83.33
2023-04-08T13:14:00,prt,78.55
2023-04-08T13:15:00,prt,77.24
2023-04-08T13:16:00,prt,86.23